Location: Bluff Heights
(33.7692°N, 118.1592°W)
Time: 04:32:33
(UTC+00:00)

AO-73 - Pass Details

Date: 04 October 2021
Orbit: 580 x 662 km, 97.6° (Epoch: 26 October)

Event Time Altitude Azimuth Distance (km) Brightness Sun altitude
Rises 12:44:05 0° 6° (N) 2,817 ? -14.4°
Reaches altitude 10° 12:46:17 10° 2° (N) 1,907 ? -14.0°
Maximum altitude 12:50:18 54° 285° (WNW) 704 ? -13.1°
Drops below altitude 10° 12:54:17 10° 207° (SSW) 1,887 ? -12.3°
Sets 12:56:27 0° 203° (SSW) 2,785 ? -11.8°
